PROFILE

 METAR AND TAF INFORMATION
ADDS - METARS form results

(1430 UTC 22 January 2019)
http://aviationweather.gov/metar/data/
 
TNCM 211400Z 09013KT 050V130 9999 SCT018 27/20 Q1021 A3015 NOSIG
TNCM 221142Z 2212/2312 09007KT P6SM VCSH SCT018 FM221400 09015KT P6SM SCT020 FM221800 07010KT P6SM FEW020 

 AIRPORT MAP

 RUNWAY INFORMATION
Runway 10 Runway length 7546 ft Runway width 150 ft
Runway elevation 13 ft Runway displaced threshold 0 ft Runway heading 96
Runway 28 Runway length 7546 ft Runway width 150 ft
Runway elevation 9 ft Runway displaced threshold 328 ft Runway heading 276

 AIRPORT FREQUENCIES
Type APP Name JULIANA AP Frequency 128.95 MHZ
Type TWR Name JULIANA TW Frequency 118.7 MHZ

 AIRPORT NEAR NAVIGATION AIDS
Type NDB Name St.mMarten Frequency 284 KHZ
Type VOR-DME Name St.mMarten Frequency 113000 KHZ